Tracking 19145 objects as of 26-Apr-2018
HD Live streaming from Space Station
objects crossing your sky now

FENGYUN 1C DEB

Track FENGYUN 1C DEB now!
10-day predictions


NORAD ID: 30462
Int'l Code: 1999-025AFZ
Perigee: 781.5 km
Apogee: 990.0 km
Inclination: 98.9 °
Period: 102.5 minutes
Semi major axis: 7256 km
RCS: 0.028 m2 (small)
Launch date: May 10, 1999
Source: People's Republic of China (PRC)
Launch site: Taiyaun Space Center, China (TSC)

Note: This is SATELLITE DEBRIS
aabbcc
Your satellite tracking list
Your tracking list is empty




NASA's NSSDC Master Catalog

Two Line Element Set (TLE):
1 30462U 99025AFZ 18115.57442434 -.00000190  00000-0 -84565-4 0  9993
2 30462  98.8863 148.5940 0143664 146.4472   5.0947 14.04405901576575
Source of the keplerian elements: AFSPC